sat.trackr.live / text

‹ back to catalog

STARLINK-32220

NORAD 60370 · 2024-138R

PAYLOAD ACTIVE UNKNOWN

§ Identity

Operator
Country
US
Launch date
2024-08-04
Launch site
AFWTR
Launch vehicle
Mass (kg)
RCS (m²)

Purposes: comms

External: N2YO · Heavens-Above · Gunter

§ Orbital elements

Epoch: 2026-05-24T21:33:54.656064Z

Period
94.11 min
Inclination
53.1619°
Eccentricity
0.0000941
Mean motion
15.30201703 rev/d
Perigee alt
474.6 km
Apogee alt
475.9 km
Semi-major
6,853.3 km
B*
2.8576e-5
RAAN
315.7500°
Arg perigee
80.7217°
Mean anomaly
279.3891°
Rev number
10,229

§ Raw data

STARLINK-322201 60370U 24138R   26144.89854926  .00000487  00000+0  28576-4 0  99922 60370  53.1619 315.7500 0000941  80.7217 279.3891 15.30201703102298

JSON: /api/v1/satellites/60370 · /tle

For live sub-satellite position, see the globe view (requires WebGL).

§ Visibility from observer

Set your observer location to see the next 7 days of passes ≥ 10°. The values pass through the URL so the page stays shareable.

No JS? Fill the form by hand. The geolocation button needs JavaScript.